OM1PU-6 Weather Reports


time (UTC)temp
C
wind
direction
speed
KPH
gust
KPH
rain 1hr
cm
rain 24hr
cm
rain mn
cm
humidity
%
barometer
mb
20260506013318 14 265 3.2 19.3 0.00 0.00 0.00 79 1019.9
20260506011818 14 54 1.6 12.9 0.00 0.00 0.00 78 1019.6
20260506010317 14 200 1.6 12.9 0.00 0.00 0.00 77 1019.6
20260506004818 14 266 4.8 19.3 0.00 0.00 0.00 76 1019.6
20260506003318 14 216 1.6 12.9 0.00 0.00 0.00 76 1019.5
20260506001817 14 222 3.2 19.3 0.00 0.00 0.00 75 1019.4
20260506000317 15 163 4.8 25.7 0.00 0.00 0.00 74 1019.3
20260505234817 15 188 1.6 12.9 0.00 0.00 0.00 73 1019.4
20260505233317 15 192 3.2 12.9 0.00 0.00 0.00 72 1019.1
20260505231817 15 129 6.4 33.8 0.00 0.00 0.00 71 1019.3
20260505230318 15 224 1.6 12.9 0.00 0.00 0.00 70 1019.1
20260505224817 15 116 6.4 25.7 0.00 0.00 0.00 69 1019.1
20260505223317 16 105 3.2 19.3 0.00 0.00 0.00 68 1019.2
20260505221817 16 201 3.2 19.3 0.00 0.00 0.00 68 1019.0
20260505220318 16 214 3.2 19.3 0.00 0.00 0.00 66 1019.2
20260505214818 16 202 1.6 12.9 0.00 0.00 0.00 65 1019.0
20260505213318 16 158 1.6 6.4 0.00 0.00 0.00 63 1018.9
20260505211817 17 139 3.2 19.3 0.00 0.00 0.00 62 1019.0
20260505210319 17 139 6.4 25.7 0.00 0.00 0.00 61 1019.0
20260505204817 17 207 6.4 25.7 0.00 0.00 0.00 60 1018.9
20260505203317 17 250 4.8 19.3 0.00 0.00 0.00 60 1018.8
20260505201817 17 227 3.2 12.9 0.00 0.00 0.00 60 1018.8
20260505200317 18 221 3.2 19.3 0.00 0.00 0.00 60 1018.9
20260505194817 18 111 3.2 19.3 0.00 0.00 0.00 59 1018.7
20260505193318 18 101 3.2 19.3 0.00 0.00 0.00 59 1019.2
20260505190317 18 213 4.8 25.7 0.00 0.00 0.00 58 1018.9
20260505184817 18 127 1.6 25.7 0.00 0.00 0.00 57 1019.1
20260505183317 19 233 1.6 12.9 0.00 0.00 0.00 56 1018.9
20260505181817 19 181 6.4 40.2 0.00 0.00 0.00 55 1019.1
20260505180317 19 152 3.2 19.3 0.00 0.00 0.00 53 1019.2
20260505174816 20 264 11.3 59.5 0.00 0.00 0.00 52 1019.2
20260505173318 20 192 6.4 25.7 0.00 0.00 0.00 51 1019.1
20260505171817 20 110 6.4 40.2 0.00 0.00 0.00 49 1018.7
20260505170317 21 240 4.8 25.7 0.00 0.00 0.00 47 1019.1
20260505164817 21 138 8.0 66.0 0.00 0.00 0.00 44 1019.2
20260505163317 21 159 8.0 53.1 0.00 0.00 0.00 43 1019.3
20260505161817 22 188 3.2 25.7 0.00 0.00 0.00 45 1019.6
20260505160317 22 211 6.4 33.8 0.00 0.00 0.00 43 1019.6
20260505153317 23 170 8.0 53.1 0.00 0.00 0.00 42 1019.7
20260505151817 24 186 17.7 91.7 0.00 0.00 0.00 41 1019.8
20260505150317 25 232 4.8 33.8 0.00 0.00 0.00 41 1019.3
20260505140318 26 143 9.7 46.7 0.00 0.00 0.00 37 1019.3
20260505124817 27 155 6.4 33.8 0.00 0.00 0.00 35 1019.6
20260505123317 27 150 3.2 19.3 0.00 0.00 0.00 38 1020.0
20260505121817 26 103 4.8 33.8 0.00 0.00 0.00 41 1020.2
20260505120317 26 266 3.2 19.3 0.00 0.00 0.00 42 1020.3
20260505114817 25 103 6.4 46.7 0.00 0.00 0.00 43 1020.7
20260505113316 24 213 8.0 59.5 0.00 0.00 0.00 42 1020.8
20260505111816 23 103 6.4 40.2 0.00 0.00 0.00 42 1020.9
20260505110316 23 201 6.4 33.8 0.00 0.00 0.00 42 1020.9
20260505101816 25 196 9.7 46.7 0.00 0.00 0.00 38 1021.2
20260505100316 24 111 6.4 25.7 0.00 0.00 0.00 44 1021.3
20260505094816 24 82 6.4 33.8 0.00 0.00 0.00 44 1021.4
20260505093317 23 114 8.0 46.7 0.00 0.00 0.00 46 1021.5
20260505091816 22 104 0.0 6.4 0.00 0.00 0.00 48 1021.9
20260505090317 22 174 3.2 12.9 0.00 0.00 0.00 48 1021.9
20260505084816 21 154 1.6 12.9 0.00 0.00 0.00 49 1021.8
20260505083317 21 221 8.0 53.1 0.00 0.00 0.00 47 1022.2
20260505081816 21 133 3.2 12.9 0.00 0.00 0.00 48 1022.0
20260505080317 21 276 1.6 12.9 0.00 0.00 0.00 49 1022.0
20260505074817 20 346 4.8 25.7 0.00 0.00 0.00 53 1022.0
20260505073316 19 212 6.4 33.8 0.00 0.00 0.00 54 1022.4
20260505071817 18 206 6.4 33.8 0.00 0.00 0.00 57 1022.6
20260505070316 18 259 1.6 12.9 0.00 0.00 0.00 55 1022.5
20260505064817 18 284 1.6 6.4 0.00 0.00 0.00 56 1022.4
20260505063316 17 260 1.6 6.4 0.00 0.00 0.00 60 1022.5
20260505061817 16 229 0.0 6.4 0.00 0.00 0.00 63 1022.6
20260505060317 16 245 0.0 6.4 0.00 0.00 0.00 61 1022.4
20260505054816 15 173 3.2 12.9 0.00 0.00 0.00 63 1022.4
20260505053317 13 275 0.0 0.0 0.00 0.00 0.00 71 1022.7
20260505051816 12 282 0.0 0.0 0.00 0.00 0.00 70 1022.5
20260505050316 11 250 0.0 0.0 0.00 0.00 0.00 71 1022.3
20260505040316 9 276 0.0 0.0 0.00 0.00 0.00 75 1022.5
20260505034816 9 261 0.0 0.0 0.00 0.00 0.00 74 1022.5
20260505033317 9 274 0.0 0.0 0.00 0.00 0.00 72 1022.4
20260505030317 11 272 0.0 0.0 0.00 0.00 0.00 64 1022.4
20260505024816 11 220 0.0 0.0 0.00 0.00 0.00 63 1022.6
20260505023317 9 248 0.0 0.0 0.00 0.00 0.00 69 1022.6
20260505021816 10 272 0.0 0.0 0.00 0.00 0.00 69 1022.7
20260505020316 11 239 0.0 6.4 0.00 0.00 0.00 62 1022.7
20260505014817 10 262 0.0 0.0 0.00 0.00 0.00 67 1022.9